Regional Weather Roundup
Issued by NWS

Home | Current Version | Previous Version | Text Only | Print | Product List | Glossary On
Versions: 1 2 3 4 5 6 7 8 9 10 11 12 13 14 15 16 17 18 19 20 21 22 23 24 25 26 27 28 29 30 31 32 33 34 35 36 37 38 39 40 41 42 43 44 45 46 47 48 49 50
000
ASUS43 KOAX 282202
RWRNE

WEATHER ROUNDUP FOR NEBRASKA
NATIONAL WEATHER SERVICE OMAHA NE
500 PM CDT THU JUL 28 2016

NOTES: SATELLITE DATA IS BEING USED TO AUGMENT CLOUD COVER ABOVE
       12000 FEET.
       "FAIR" INDICATES FEW OR NO CLOUDS BELOW 12,000 FEET WITH NO
       SIGNIFICANT WEATHER AND/OR OBSTRUCTIONS TO VISIBILITY.

  * THESE STATIONS DO NOT REPORT WEATHER SUCH AS RAIN...SNOW OR FOG.

NEZ001>004-019>022-054>056-282300-
NEBRASKA PANHANDLE

CITY           SKY/WX    TMP DP  RH WIND       PRES   REMARKS
SCOTTSBLUFF    SUNNY     79  55  43 NW5       30.14F
ALLIANCE       MOSUNNY   76  58  53 N9        30.14F
CHADRON        MOSUNNY   81  53  37 VRB5      30.10F
KIMBALL        SUNNY     76  54  46 CALM      30.19F
SIDNEY         SUNNY     80  54  40 E8        30.16F
$$

NEZ057>060-069>072-079>082-282300-
SOUTHWEST NEBRASKA

CITY           SKY/WX    TMP DP  RH WIND       PRES   REMARKS
NORTH PLATTE   MOSUNNY   73  61  65 E6        30.10R
IMPERIAL       SUNNY     75  60  59 SE12      30.09F
LEXINGTON      CLOUDY    69  66  92 SE12      30.01F
MCCOOK         CLOUDY    68  64  87 E7        30.05F
OGALLALA       SUNNY     77  55  45 SE3       30.11S
$$

NEZ005>010-023>029-035>040-094-282300-
NORTH CENTRAL NEBRASKA

CITY           SKY/WX    TMP DP  RH WIND       PRES   REMARKS
VALENTINE      CLOUDY    75  59  57 E3        30.07F
AINSWORTH      CLOUDY    73  65  75 CALM      30.08F
BROKEN BOW     CLOUDY    74  67  78 SE6       30.06S
O`NEILL        CLOUDY    78  58  49 NE5       30.06F
ORD            CLOUDY    73  66  78 CALM      30.03F
THEDFORD       SUNNY     78  59  51 E7        30.10F
$$

NEZ041-046>049-061>064-073>077-083>087-282300-
SOUTH CENTRAL NEBRASKA

CITY           SKY/WX    TMP DP  RH WIND       PRES   REMARKS
GRAND ISLAND   LGT RAIN  75  67  76 N6        30.05R
AURORA         CLOUDY    79  65  61 CALM      30.03R
HASTINGS       CLOUDY    80  64  58 NE7       30.04F
HEBRON         CLOUDY    83  64  52 N5        29.99F
HOLDREGE       RAIN      68  65  91 N6G16     30.08S
KEARNEY *      CLOUDY    75  16  10 NW8       30.08R
YORK           CLOUDY    79  66  65 NE8       30.02S
$$

NEZ011>018-030>034-042>045-282300-
NORTHEAST NEBRASKA

CITY           SKY/WX    TMP DP  RH WIND       PRES   REMARKS
NORFOLK        CLOUDY    79  59  50 NW10      30.02F
ALBION         CLOUDY    76  64  65 NE3       30.05S
BLAIR          SUNNY     82  62  50 N10       29.98F
FREMONT        CLOUDY    80  61  51 NW6       30.00S
TEKAMAH        PTSUNNY   83  59  44 N14       29.98F
WAYNE          PTSUNNY   79  63  57 N8        30.02S
$$

NEZ050>053-065>068-078-088>093-282300-
SOUTHEAST NEBRASKA

CITY           SKY/WX    TMP DP  RH WIND       PRES   REMARKS
LINCOLN        MOSUNNY   87  65  47 NE13      29.98S
OMAHA EPPLEY   MOSUNNY   84  62  47 N14       29.96F
BEATRICE       SUNNY     85  63  48 N8        29.97R
FALLS CITY     SUNNY     85  66  53 NE9       29.93F
NEBRASKA CITY  SUNNY     83  62  48 N9        29.96F
PLATTSMOUTH    MOSUNNY   83  65  54 N7        29.97F
$$

NEZ044-045-051>053-067-282300-
OMAHA AREA

CITY           SKY/WX    TMP DP  RH WIND       PRES   REMARKS
OMAHA EPPLEY   MOSUNNY   84  62  47 N14       29.96F
BLAIR          SUNNY     82  62  50 N10       29.98F
FREMONT        CLOUDY    80  61  51 NW6       30.00S
MILLARD        SUNNY     82  64  53 N9        29.96F
OFFUTT AFB     SUNNY     83  65  53 NE12      29.95F
PLATTSMOUTH    MOSUNNY   83  65  54 N7        29.97F
WAHOO          FAIR      81  64  54 N8        29.99S
$$



USA.gov is the U.S. government's official web portal to all federal, state and local government web resources and services.